Location: *
(41.7492°S, 135.4150°W)
Time: 23:18:23
(UTC+00:00)

METEOR M2 - Pass Details

Date: 09 July 2022
Orbit: 818 x 827 km, 98.4° (Epoch: 17 August)

Event Time Altitude Azimuth Distance (km) Brightness Sun altitude
Exits shadow 05:12:31 27° 242° (WSW) 1,543 ? -37.8°
Maximum altitude 05:12:39 27° 245° (WSW) 1,542 ? -37.8°
Drops below altitude 10° 05:17:07 10° 301° (WNW) 2,431 ? -38.6°
Sets 05:19:46 0° 313° (NW) 3,358 ? -39.1°
